Home   Weather   Codó   Past weeks
Flag for Brazil

Past Weather in Codó, Maranhão, Brazil — Yesterday and Last 2 Weeks

Now
81 °F

Clear.


Feels Like: 85 °F
Forecast: 99 / 73 °F
Wind: 8 mph from North

Location: Teresina Aeroporto

Current Time: Sep 16, 2019 at 1:23:23 am

Latest Report: Sep 16, 2019 at 1:00 am


Visibility: 10 mi

Pressure: 29.83 "Hg

Humidity: 74%

Dew Point: 72 °F

Location of CodóLocation

Past Weather in Codó — Graph

°F

Codó Temperature Yesterday

Maximum temperature yesterday: 99 °F (at 2:00 pm)
Minimum temperature yesterday: 75 °F (at 6:00 am)
Average temperature yesterday: 87 °F

High & Low Weather Summary for the Past Weeks

 TemperatureHumidityPressure
High102 °F (Sep 13, 3:00 pm)89% (Sep 1, 6:00 am)30.12 "Hg (Sep 1, 6:00 am)
Low73 °F (Sep 1, 6:00 am)22% (Sep 11, 3:00 pm)29.77 "Hg (Sep 1, 4:00 pm)
Average87 °F54%29.88 "Hg
* Reported Sep 1 12:00 am — Sep 16 12:00 am, Codó. Weather by CustomWeather, © 2019

Note: Actual official high and low records may vary slightly from our data, if they occured in-between our weather recording intervals... More about our weather records

Advertising

Codó Weather History for the Previous 24 Hours

Scroll right to see more
 ConditionsComfort  
Time TempWeatherWind HumidityBarometerVisibility
12:00 am
Mon, Sep 16
82 °FClear.9 mph66%29.86 "Hg10 mi
11:00 pm
Sun, Sep 15
82 °FClear.5 mph62%29.86 "Hg10 mi
10:00 pm84 °FClear.3 mph58%29.83 "Hg10 mi
9:00 pm86 °FClear.No wind52%29.80 "Hg10 mi
8:00 pm88 °FClear.3 mph49%29.80 "Hg10 mi
7:00 pm90 °FClear.3 mph46%29.80 "Hg10 mi
6:00 pm93 °FClear.2 mph39%29.77 "Hg10 mi
5:00 pm97 °FSunny.5 mph28%29.77 "Hg10 mi
4:00 pm99 °FSunny.5 mph29%29.77 "Hg10 mi
3:00 pm99 °FScattered clouds.6 mph29%29.77 "HgN/A
2:00 pm99 °FScattered clouds.7 mph29%29.80 "HgN/A
1:00 pm95 °FScattered clouds.5 mph32%29.83 "HgN/A
12:00 pm93 °FPartly sunny.8 mph41%29.86 "HgN/A
11:00 am93 °FScattered clouds.7 mph44%29.89 "HgN/A
10:00 am88 °FPartly sunny.8 mph55%29.92 "HgN/A
9:00 am86 °FSunny.5 mph62%29.95 "Hg10 mi
8:00 am81 °FScattered clouds.3 mph74%29.92 "HgN/A
7:00 am79 °FSunny.No wind84%29.92 "Hg10 mi
6:00 am75 °FSunny.1 mph89%29.89 "Hg10 mi
5:00 am77 °FClear.3 mph83%29.86 "Hg10 mi
4:00 am77 °FClear.5 mph83%29.83 "Hg10 mi
3:00 am79 °FClear.5 mph79%29.86 "Hg10 mi
2:00 am79 °FClear.6 mph79%29.86 "Hg10 mi
1:00 am81 °FClear.8 mph74%29.83 "Hg10 mi
Weather by CustomWeather, © 2019

See weather overview